Regional Weather Roundup
Issued by NWS

Home | Current Version | Previous Version | Text Only | Print | Product List | Glossary On
Versions: 1 2 3 4 5 6 7 8 9 10 11 12 13 14 15 16 17 18 19 20 21 22 23 24 25 26 27 28 29 30 31 32 33 34 35 36 37 38 39 40 41 42 43 44 45 46 47 48 49 50
875
ASUS44 KJAN 011903
RWRMS

MISSISSIPPI HOURLY WEATHER ROUNDUP
NATIONAL WEATHER SERVICE JACKSON MS
200 PM CDT MON SEP 01 2014

NOTE: "FAIR: INDICATES FEW OR NO CLOUDS BELOW 12,000 FEET WITH NO
SIGNIFICANT WEATHER AND/OR OBSTRUCTIONS TO VISIBILITY.

MSZ001>002-007>008-010>013-018>021-025>028-034>036-012000-
NORTHWEST MISSISSIPPI

CITY           SKY/WX    TMP DP  RH WIND       PRES   REMARKS
CLARKSDALE     FAIR      90  77  66 CALM      30.03F HX 102
CLEVELAND      FAIR      85  76  74 CALM      30.02F HX  94
GREENWOOD      MOSUNNY   91  72  53 S8        30.05S HX  98
GREENVILLE     RAIN      82  74  76 S6G23     30.02F
GRENADA        FAIR      90  70  51 S8        30.05F HX  95
OLIVE BRANCH   MOSUNNY   86  75  70 S12       30.04F HX  95
OXFORD         FAIR      88  68  51 W6        30.08F HX  91
TUNICA         LGT RAIN  86  73  66 SW7       30.03F HX  93
$$

MSZ003>006-009-014>017-022>024-029>033-037>039-012000-
NORTHEAST MISSISSIPPI

CITY           SKY/WX    TMP DP  RH WIND       PRES   REMARKS
BELMONT        MOCLDY    88  72  58 SW12      30.08F HX  94
COLUMBUS AFB   SUNNY     91  69  48 SW9       30.06F HX  96
CORINTH        FAIR      88  72  58 W6        30.05F HX  94
GOLDN TRIANGLE MOSUNNY   91  72  52 SW7       30.07F HX  98
STARKVILLE     FAIR      90  70  51 S3        30.06F HX  95
TUPELO         MOSUNNY   91  68  46 W8        30.06F HX  95
$$

MSZ040-058-012000-
CENTRAL MISSISSIPPI

CITY           SKY/WX    TMP DP  RH WIND       PRES   REMARKS
JACKSON INTL   PTSUNNY   93  71  48 S8        30.04F HX 100
JACKSON HAWKNS MOSUNNY   93  73  52 SE9       30.05F HX 102
MERIDIAN KEY   SUNNY     91  68  46 S10       30.06F HX  95
MERIDIAN NAS   PTSUNNY   92  70  48 S8        30.07F HX  97
RAYMOND        FAIR      91  86  84 MISG      30.04F HX 122
VICKSBURG      PTSUNNY   90  73  57 S10       30.03F HX  98
$$

MSZ059>079-012000-
SOUTH MISSISSIPPI

CITY           SKY/WX    TMP DP  RH WIND       PRES   REMARKS
BROOKHAVEN     FAIR      90  75  62 SE7       30.06F HX 100
HATTIESBURG    MOSUNNY   94  71  47 S9G18     30.04F HX 101
MCCOMB         MOSUNNY   90  70  51 S13       30.03F HX  95
NATCHEZ        PTSUNNY   90  75  62 S9        30.02F HX 100
PINE BELT      MOSUNNY   88  70  55 S7        30.07F THUNDER HX  92
$$

MSZ080>082-012000-
COASTAL MISSISSIPPI

CITY           SKY/WX    TMP DP  RH WIND       PRES   REMARKS
BAY ST LOUIS   PTSUNNY  N/A N/A N/A S7        30.06S
BILOXI         MOSUNNY   90  75  61 S13       30.06F HX 101
PASCAGOULA     MOSUNNY   89  73  59 S12       30.07S HX  97
GULFPORT       MOSUNNY   90  76  63 SE17G24   30.05F HX 101
$$



USA.gov is the U.S. government's official web portal to all federal, state and local government web resources and services.